Year,Month,Day,Hour,Minute,Value (Times are PST for temperature in C)
2011,04,22,00,00,7.00
2011,04,22,00,01,7.00
2011,04,22,00,02,6.90
2011,04,22,00,03,6.90
2011,04,22,00,04,6.90
2011,04,22,00,05,6.80
2011,04,22,00,06,6.80
2011,04,22,00,07,6.80
2011,04,22,00,08,6.80
2011,04,22,00,09,6.80
2011,04,22,00,10,6.80
2011,04,22,00,11,6.80
2011,04,22,00,12,6.80
2011,04,22,00,13,6.80
2011,04,22,00,14,6.80
2011,04,22,00,15,6.80
2011,04,22,00,16,6.80
2011,04,22,00,17,6.80
2011,04,22,00,18,6.80
2011,04,22,00,19,6.80
2011,04,22,00,20,6.80
2011,04,22,00,21,6.80
2011,04,22,00,22,6.80
2011,04,22,00,23,6.80
2011,04,22,00,24,6.80
2011,04,22,00,25,6.70
2011,04,22,00,26,6.70
2011,04,22,00,27,6.60
2011,04,22,00,28,6.60
2011,04,22,00,29,6.60
2011,04,22,00,30,6.60
2011,04,22,00,31,6.70
2011,04,22,00,32,6.70
2011,04,22,00,33,6.70
2011,04,22,00,34,6.70
2011,04,22,00,35,6.70
2011,04,22,00,36,6.70
2011,04,22,00,37,6.70
2011,04,22,00,38,6.70
2011,04,22,00,39,6.70
2011,04,22,00,40,6.70
2011,04,22,00,41,6.70
2011,04,22,00,42,6.70
2011,04,22,00,43,6.70
2011,04,22,00,44,6.60
2011,04,22,00,45,6.60
2011,04,22,00,46,6.60
2011,04,22,00,47,6.50
2011,04,22,00,48,6.50
2011,04,22,00,49,6.50
2011,04,22,00,50,6.40
2011,04,22,00,51,6.40
2011,04,22,00,52,6.40
2011,04,22,00,53,6.40
2011,04,22,00,54,6.40
2011,04,22,00,55,6.30
2011,04,22,00,56,6.40
2011,04,22,00,57,6.40
2011,04,22,00,58,6.30
2011,04,22,00,59,6.30
2011,04,22,01,00,6.30
2011,04,22,01,01,6.30
2011,04,22,01,02,6.30
2011,04,22,01,03,6.20
2011,04,22,01,04,6.20
2011,04,22,01,05,6.20
2011,04,22,01,06,6.10
2011,04,22,01,07,6.10
2011,04,22,01,08,6.10
2011,04,22,01,09,6.10
2011,04,22,01,10,6.10
2011,04,22,01,11,6.10
2011,04,22,01,12,6.10
2011,04,22,01,13,6.10
2011,04,22,01,14,6.10
2011,04,22,01,15,6.10
2011,04,22,01,16,6.10
2011,04,22,01,17,6.10
2011,04,22,01,18,6.10
2011,04,22,01,19,6.10
2011,04,22,01,20,6.00
2011,04,22,01,21,6.00
2011,04,22,01,22,6.00
2011,04,22,01,23,5.90
2011,04,22,01,24,5.90
2011,04,22,01,25,5.90
2011,04,22,01,26,5.90
2011,04,22,01,27,5.80
2011,04,22,01,28,5.80
2011,04,22,01,29,5.80
2011,04,22,01,30,5.80
2011,04,22,01,31,5.70
2011,04,22,01,32,5.60
2011,04,22,01,33,5.60
2011,04,22,01,34,5.60
2011,04,22,01,35,5.50
2011,04,22,01,36,5.50
2011,04,22,01,37,5.50
2011,04,22,01,38,5.40
2011,04,22,01,39,5.50
2011,04,22,01,40,5.40
2011,04,22,01,41,5.40
2011,04,22,01,42,5.40
2011,04,22,01,43,5.40
2011,04,22,01,44,5.40
2011,04,22,01,45,5.40
2011,04,22,01,46,5.50
2011,04,22,01,47,5.50
2011,04,22,01,48,5.50
2011,04,22,01,49,5.50
2011,04,22,01,50,5.50
2011,04,22,01,51,5.50
2011,04,22,01,52,5.50
2011,04,22,01,53,5.40
2011,04,22,01,54,5.40
2011,04,22,01,55,5.40
2011,04,22,01,56,5.30
2011,04,22,01,57,5.30
2011,04,22,01,58,5.30
2011,04,22,01,59,5.30
2011,04,22,02,00,5.30
2011,04,22,02,01,5.30
2011,04,22,02,02,5.20
2011,04,22,02,03,5.20
2011,04,22,02,04,5.20
2011,04,22,02,05,5.20
2011,04,22,02,06,5.20
2011,04,22,02,07,5.20
2011,04,22,02,08,5.20
2011,04,22,02,09,5.10
2011,04,22,02,10,5.10
2011,04,22,02,11,5.10
2011,04,22,02,12,5.10
2011,04,22,02,13,5.10
2011,04,22,02,14,5.10
2011,04,22,02,15,5.10
2011,04,22,02,16,5.20
2011,04,22,02,17,5.10
2011,04,22,02,18,5.10
2011,04,22,02,19,5.10
2011,04,22,02,20,5.00
2011,04,22,02,21,5.00
2011,04,22,02,22,5.00
2011,04,22,02,23,4.90
2011,04,22,02,24,4.90
2011,04,22,02,25,4.80
2011,04,22,02,26,4.80
2011,04,22,02,27,4.80
2011,04,22,02,28,4.80
2011,04,22,02,29,4.70
2011,04,22,02,30,4.70
2011,04,22,02,31,4.60
2011,04,22,02,32,4.60
2011,04,22,02,33,4.50
2011,04,22,02,34,4.40
2011,04,22,02,35,4.40
2011,04,22,02,36,4.40
2011,04,22,02,37,4.30
2011,04,22,02,38,4.30
2011,04,22,02,39,4.30
2011,04,22,02,40,4.20
2011,04,22,02,41,4.20
2011,04,22,02,42,4.20
2011,04,22,02,43,4.20
2011,04,22,02,44,4.20
2011,04,22,02,45,4.20
2011,04,22,02,46,4.10
2011,04,22,02,47,4.10
2011,04,22,02,48,4.10
2011,04,22,02,49,4.10
2011,04,22,02,50,4.10
2011,04,22,02,51,4.10
2011,04,22,02,52,4.10
2011,04,22,02,53,4.10
2011,04,22,02,54,4.10
2011,04,22,02,55,4.10
2011,04,22,02,56,4.10
2011,04,22,02,57,4.10
2011,04,22,02,58,4.10
2011,04,22,02,59,4.10
2011,04,22,03,00,4.10
2011,04,22,03,01,4.10
2011,04,22,03,02,4.00
2011,04,22,03,03,4.00
2011,04,22,03,04,4.00
2011,04,22,03,05,4.00
2011,04,22,03,06,3.90
2011,04,22,03,07,3.90
2011,04,22,03,08,3.80
2011,04,22,03,09,3.80
2011,04,22,03,10,3.80
2011,04,22,03,11,3.80
2011,04,22,03,12,3.80
2011,04,22,03,13,3.70
2011,04,22,03,14,3.70
2011,04,22,03,15,3.70
2011,04,22,03,16,3.70
2011,04,22,03,17,3.60
2011,04,22,03,18,3.60
2011,04,22,03,19,3.60
2011,04,22,03,20,3.60
2011,04,22,03,21,3.60
2011,04,22,03,22,3.60
2011,04,22,03,23,3.50
2011,04,22,03,24,3.50
2011,04,22,03,25,3.50
2011,04,22,03,26,3.50
2011,04,22,03,27,3.50
2011,04,22,03,28,3.40
2011,04,22,03,29,3.40
2011,04,22,03,30,3.30
2011,04,22,03,31,3.30
2011,04,22,03,32,3.30
2011,04,22,03,33,3.30
2011,04,22,03,34,3.30
2011,04,22,03,35,3.20
2011,04,22,03,36,3.20
2011,04,22,03,37,3.20
2011,04,22,03,38,3.20
2011,04,22,03,39,3.20
2011,04,22,03,40,3.10
2011,04,22,03,41,3.10
2011,04,22,03,42,3.10
2011,04,22,03,43,3.10
2011,04,22,03,44,3.10
2011,04,22,03,45,3.10
2011,04,22,03,46,3.10
2011,04,22,03,47,3.10
2011,04,22,03,48,3.10
2011,04,22,03,49,3.10
2011,04,22,03,50,3.10
2011,04,22,03,51,3.10
2011,04,22,03,52,3.10
2011,04,22,03,53,3.10
2011,04,22,03,54,3.10
2011,04,22,03,55,3.10
2011,04,22,03,56,3.10
2011,04,22,03,57,3.10
2011,04,22,03,58,3.10
2011,04,22,03,59,3.00
2011,04,22,04,00,3.00
2011,04,22,04,01,3.00
2011,04,22,04,02,3.00
2011,04,22,04,03,3.10
2011,04,22,04,04,3.10
2011,04,22,04,05,3.10
2011,04,22,04,06,3.10
2011,04,22,04,07,3.10
2011,04,22,04,08,3.10
2011,04,22,04,09,3.00
2011,04,22,04,10,3.00
2011,04,22,04,11,2.90
2011,04,22,04,12,2.90
2011,04,22,04,13,2.90
2011,04,22,04,14,2.90
2011,04,22,04,15,2.90
2011,04,22,04,16,2.90
2011,04,22,04,17,2.90
2011,04,22,04,18,2.90
2011,04,22,04,19,2.90
2011,04,22,04,20,2.90
2011,04,22,04,21,2.80
2011,04,22,04,22,2.80
2011,04,22,04,23,2.80
2011,04,22,04,24,2.80
2011,04,22,04,25,2.80
2011,04,22,04,26,2.70
2011,04,22,04,27,2.70
2011,04,22,04,28,2.70
2011,04,22,04,29,2.60
2011,04,22,04,30,2.60
2011,04,22,04,31,2.60
2011,04,22,04,32,2.60
2011,04,22,04,33,2.50
2011,04,22,04,34,2.50
2011,04,22,04,35,2.50
2011,04,22,04,36,2.50
2011,04,22,04,37,2.40
2011,04,22,04,38,2.50
2011,04,22,04,39,2.50
2011,04,22,04,40,2.50
2011,04,22,04,41,2.50
2011,04,22,04,42,2.50
2011,04,22,04,43,2.50
2011,04,22,04,44,2.50
2011,04,22,04,45,2.50
2011,04,22,04,46,2.50
2011,04,22,04,47,2.50
2011,04,22,04,48,2.50
2011,04,22,04,49,2.50
2011,04,22,04,50,2.50
2011,04,22,04,51,2.50
2011,04,22,04,52,2.50
2011,04,22,04,53,2.50
2011,04,22,04,54,2.50
2011,04,22,04,55,2.40
2011,04,22,04,56,2.40
2011,04,22,04,57,2.40
2011,04,22,04,58,2.40
2011,04,22,04,59,2.40
2011,04,22,05,00,2.40
2011,04,22,05,01,2.40
2011,04,22,05,02,2.40
2011,04,22,05,03,2.40
2011,04,22,05,04,2.40
2011,04,22,05,05,2.40
2011,04,22,05,06,2.40
2011,04,22,05,07,2.40
2011,04,22,05,08,2.40
2011,04,22,05,09,2.40
2011,04,22,05,10,2.40
2011,04,22,05,11,2.40
2011,04,22,05,12,2.40
2011,04,22,05,13,2.40
2011,04,22,05,14,2.40
2011,04,22,05,15,2.30
2011,04,22,05,16,2.30
2011,04,22,05,17,2.30
2011,04,22,05,18,2.30
2011,04,22,05,19,2.30
2011,04,22,05,20,2.30
2011,04,22,05,21,2.30
2011,04,22,05,22,2.30
2011,04,22,05,23,2.30
2011,04,22,05,24,2.30
2011,04,22,05,25,2.30
2011,04,22,05,26,2.30
2011,04,22,05,27,2.30
2011,04,22,05,28,2.30
2011,04,22,05,29,2.20
2011,04,22,05,30,2.20
2011,04,22,05,31,2.20
2011,04,22,05,32,2.20
2011,04,22,05,33,2.20
2011,04,22,05,34,2.20
2011,04,22,05,35,2.20
2011,04,22,05,36,2.20
2011,04,22,05,37,2.20
2011,04,22,05,38,2.20
2011,04,22,05,39,2.20
2011,04,22,05,40,2.10
2011,04,22,05,41,2.10
2011,04,22,05,42,2.10
2011,04,22,05,43,2.10
2011,04,22,05,44,2.10
2011,04,22,05,45,2.10
2011,04,22,05,46,2.10
2011,04,22,05,47,2.10
2011,04,22,05,48,2.10
2011,04,22,05,49,2.10
2011,04,22,05,50,2.10
2011,04,22,05,51,2.10
2011,04,22,05,52,2.10
2011,04,22,05,53,2.00
2011,04,22,05,54,2.00
2011,04,22,05,55,2.00
2011,04,22,05,56,2.00
2011,04,22,05,57,2.00
2011,04,22,05,58,1.90
2011,04,22,05,59,1.90
2011,04,22,06,00,1.90
2011,04,22,06,01,1.90
2011,04,22,06,02,1.90
2011,04,22,06,03,1.90
2011,04,22,06,04,1.90
2011,04,22,06,05,1.90
2011,04,22,06,06,1.90
2011,04,22,06,07,1.90
2011,04,22,06,08,1.90
2011,04,22,06,09,1.90
2011,04,22,06,10,1.90
2011,04,22,06,11,1.90
2011,04,22,06,12,1.90
2011,04,22,06,13,1.90
2011,04,22,06,14,1.90
2011,04,22,06,15,1.90
2011,04,22,06,16,1.90
2011,04,22,06,17,1.90
2011,04,22,06,18,1.90
2011,04,22,06,19,1.90
2011,04,22,06,20,1.90
2011,04,22,06,21,1.90
2011,04,22,06,22,1.90
2011,04,22,06,23,1.80
2011,04,22,06,24,1.80
2011,04,22,06,25,1.80
2011,04,22,06,26,1.80
2011,04,22,06,27,1.80
2011,04,22,06,28,1.80
2011,04,22,06,29,1.70
2011,04,22,06,30,1.70
2011,04,22,06,31,1.70
2011,04,22,06,32,1.70
2011,04,22,06,33,1.70
2011,04,22,06,34,1.60
2011,04,22,06,35,1.60
2011,04,22,06,36,1.60
2011,04,22,06,37,1.60
2011,04,22,06,38,1.60
2011,04,22,06,39,1.50
2011,04,22,06,40,1.50
2011,04,22,06,41,1.50
2011,04,22,06,42,1.50
2011,04,22,06,43,1.50
2011,04,22,06,44,1.50
2011,04,22,06,45,1.40
2011,04,22,06,46,1.40
2011,04,22,06,47,1.40
2011,04,22,06,48,1.40
2011,04,22,06,49,1.40
2011,04,22,06,50,1.40
2011,04,22,06,51,1.40
2011,04,22,06,52,1.50
2011,04,22,06,53,1.50
2011,04,22,06,54,1.50
2011,04,22,06,55,1.50
2011,04,22,06,56,1.50
2011,04,22,06,57,1.50
2011,04,22,06,58,1.60
2011,04,22,06,59,1.60
2011,04,22,07,00,1.60
2011,04,22,07,01,1.60
2011,04,22,07,02,1.60
2011,04,22,07,03,1.70
2011,04,22,07,04,1.70
2011,04,22,07,05,1.70
2011,04,22,07,06,1.70
2011,04,22,07,07,1.70
2011,04,22,07,08,1.70
2011,04,22,07,09,1.70
2011,04,22,07,10,1.70
2011,04,22,07,11,1.70
2011,04,22,07,12,1.70
2011,04,22,07,13,1.80
2011,04,22,07,14,1.80
2011,04,22,07,15,1.80
2011,04,22,07,16,1.80
2011,04,22,07,17,1.80
2011,04,22,07,18,1.80
2011,04,22,07,19,1.80
2011,04,22,07,20,1.80
2011,04,22,07,21,1.80
2011,04,22,07,22,1.90
2011,04,22,07,23,1.90
2011,04,22,07,24,1.90
2011,04,22,07,25,1.90
2011,04,22,07,26,1.90
2011,04,22,07,27,1.90
2011,04,22,07,28,1.90
2011,04,22,07,29,1.90
2011,04,22,07,30,2.00
2011,04,22,07,31,2.00
2011,04,22,07,32,2.00
2011,04,22,07,33,2.10
2011,04,22,07,34,2.10
2011,04,22,07,35,2.10
2011,04,22,07,36,2.10
2011,04,22,07,37,2.10
2011,04,22,07,38,2.10
2011,04,22,07,39,2.20
2011,04,22,07,40,2.20
2011,04,22,07,41,2.20
2011,04,22,07,42,2.30
2011,04,22,07,43,2.30
2011,04,22,07,44,2.30
2011,04,22,07,45,2.40
2011,04,22,07,46,2.40
2011,04,22,07,47,2.40
2011,04,22,07,48,2.50
2011,04,22,07,49,2.50
2011,04,22,07,50,2.50
2011,04,22,07,51,2.50
2011,04,22,07,52,2.60
2011,04,22,07,53,2.60
2011,04,22,07,54,2.60
2011,04,22,07,55,2.60
2011,04,22,07,56,2.60
2011,04,22,07,57,2.70
2011,04,22,07,58,2.70
2011,04,22,07,59,2.70
2011,04,22,08,00,2.80
2011,04,22,08,01,2.80
2011,04,22,08,02,2.80
2011,04,22,08,03,2.90
2011,04,22,08,04,2.90
2011,04,22,08,05,2.90
2011,04,22,08,06,3.00
2011,04,22,08,07,3.00
2011,04,22,08,08,3.10
2011,04,22,08,09,3.10
2011,04,22,08,10,3.10
2011,04,22,08,11,3.10
2011,04,22,08,12,3.20
2011,04,22,08,13,3.20
2011,04,22,08,14,3.20
2011,04,22,08,15,3.20
2011,04,22,08,16,3.30
2011,04,22,08,17,3.30
2011,04,22,08,18,3.30
2011,04,22,08,19,3.30
2011,04,22,08,20,3.40
2011,04,22,08,21,3.40
2011,04,22,08,22,3.40
2011,04,22,08,23,3.40
2011,04,22,08,24,3.50
2011,04,22,08,25,3.50
2011,04,22,08,26,3.50
2011,04,22,08,27,3.60
2011,04,22,08,28,3.60
2011,04,22,08,29,3.60
2011,04,22,08,30,3.60
2011,04,22,08,31,3.70
2011,04,22,08,32,3.70
2011,04,22,08,33,3.70
2011,04,22,08,34,3.80
2011,04,22,08,35,3.80
2011,04,22,08,36,3.80
2011,04,22,08,37,3.80
2011,04,22,08,38,3.90
2011,04,22,08,39,3.90
2011,04,22,08,40,3.90
2011,04,22,08,41,4.00
2011,04,22,08,42,4.00
2011,04,22,08,43,4.10
2011,04,22,08,44,4.10
2011,04,22,08,45,4.10
2011,04,22,08,46,4.10
2011,04,22,08,47,4.20
2011,04,22,08,48,4.20
2011,04,22,08,49,4.20
2011,04,22,08,50,4.20
2011,04,22,08,51,4.20
2011,04,22,08,52,4.20
2011,04,22,08,53,4.20
2011,04,22,08,54,4.30
2011,04,22,08,55,4.30
2011,04,22,08,56,4.30
2011,04,22,08,57,4.30
2011,04,22,08,58,4.30
2011,04,22,08,59,4.40
2011,04,22,09,00,4.40
2011,04,22,09,01,4.40
2011,04,22,09,02,4.40
2011,04,22,09,03,4.40
2011,04,22,09,04,4.50
2011,04,22,09,05,4.50
2011,04,22,09,06,4.50
2011,04,22,09,07,4.60
2011,04,22,09,08,4.60
2011,04,22,09,09,4.60
2011,04,22,09,10,4.70
2011,04,22,09,11,4.70
2011,04,22,09,12,4.70
2011,04,22,09,13,4.80
2011,04,22,09,14,4.80
2011,04,22,09,15,4.80
2011,04,22,09,16,4.80
2011,04,22,09,17,4.80
2011,04,22,09,18,4.90
2011,04,22,09,19,4.90
2011,04,22,09,20,4.90
2011,04,22,09,21,4.90
2011,04,22,09,22,5.00
2011,04,22,09,23,5.00
2011,04,22,09,24,5.00
2011,04,22,09,25,5.10
2011,04,22,09,26,5.10
2011,04,22,09,27,5.10
2011,04,22,09,28,5.20
2011,04,22,09,29,5.20
2011,04,22,09,30,5.30
2011,04,22,09,31,5.30
2011,04,22,09,32,5.30
2011,04,22,09,33,5.40
2011,04,22,09,34,5.40
2011,04,22,09,35,5.40
2011,04,22,09,36,5.40
2011,04,22,09,37,5.50
2011,04,22,09,38,5.50
2011,04,22,09,39,5.60
2011,04,22,09,40,5.60
2011,04,22,09,41,5.60
2011,04,22,09,42,5.70
2011,04,22,09,43,5.70
2011,04,22,09,44,5.80
2011,04,22,09,45,5.80
2011,04,22,09,46,5.90
2011,04,22,09,47,5.90
2011,04,22,09,48,6.00
2011,04,22,09,49,6.00
2011,04,22,09,50,6.10
2011,04,22,09,51,6.10
2011,04,22,09,52,6.10
2011,04,22,09,53,6.10
2011,04,22,09,54,6.10
2011,04,22,09,55,6.20
2011,04,22,09,56,6.60
2011,04,22,09,57,6.60
2011,04,22,09,58,6.60
2011,04,22,09,59,6.60
2011,04,22,10,00,6.60
2011,04,22,10,01,6.60
2011,04,22,10,02,6.60
2011,04,22,10,03,6.60
2011,04,22,10,04,6.70
2011,04,22,10,05,6.70
2011,04,22,10,06,6.70
2011,04,22,10,07,6.70
2011,04,22,10,08,6.70
2011,04,22,10,09,6.70
2011,04,22,10,10,6.70
2011,04,22,10,11,6.80
2011,04,22,10,12,6.80
2011,04,22,10,13,6.80
2011,04,22,10,14,6.80
2011,04,22,10,15,6.80
2011,04,22,10,16,6.80
2011,04,22,10,17,6.90
2011,04,22,10,18,6.90
2011,04,22,10,19,6.90
2011,04,22,10,20,7.00
2011,04,22,10,21,7.00
2011,04,22,10,22,7.00
2011,04,22,10,23,7.00
2011,04,22,10,24,7.00
2011,04,22,10,25,7.00
2011,04,22,10,26,7.00
2011,04,22,10,27,7.00
2011,04,22,10,28,6.90
2011,04,22,10,29,6.90
2011,04,22,10,30,6.90
2011,04,22,10,31,7.00
2011,04,22,10,32,7.00
2011,04,22,10,33,7.00
2011,04,22,10,34,7.10
2011,04,22,10,35,7.10
2011,04,22,10,36,7.10
2011,04,22,10,37,7.10
2011,04,22,10,38,7.10
2011,04,22,10,39,7.20
2011,04,22,10,40,7.20
2011,04,22,10,41,7.20
2011,04,22,10,42,7.20
2011,04,22,10,43,7.30
2011,04,22,10,44,7.40
2011,04,22,10,45,7.50
2011,04,22,10,46,7.50
2011,04,22,10,47,7.60
2011,04,22,10,48,7.60
2011,04,22,10,49,7.70
2011,04,22,10,50,7.70
2011,04,22,10,51,7.80
2011,04,22,10,52,7.80
2011,04,22,10,53,7.90
2011,04,22,10,54,7.90
2011,04,22,10,55,8.00
2011,04,22,10,56,8.00
2011,04,22,10,57,8.10
2011,04,22,10,58,8.10
2011,04,22,10,59,8.10
2011,04,22,11,00,8.20
2011,04,22,11,01,8.20
2011,04,22,11,02,8.20
2011,04,22,11,03,8.20
2011,04,22,11,04,8.30
2011,04,22,11,05,8.30
2011,04,22,11,06,8.30
2011,04,22,11,07,8.30
2011,04,22,11,08,8.30
2011,04,22,11,09,8.30
2011,04,22,11,10,8.30
2011,04,22,11,11,8.30
2011,04,22,11,12,8.30
2011,04,22,11,13,8.40
2011,04,22,11,14,8.40
2011,04,22,11,15,8.40
2011,04,22,11,16,8.50
2011,04,22,11,17,8.60
2011,04,22,11,18,8.60
2011,04,22,11,19,8.70
2011,04,22,11,20,8.70
2011,04,22,11,21,8.70
2011,04,22,11,22,8.70
2011,04,22,11,23,8.60
2011,04,22,11,24,8.60
2011,04,22,11,25,8.60
2011,04,22,11,26,8.60
2011,04,22,11,27,8.70
2011,04,22,11,28,8.70
2011,04,22,11,29,8.70
2011,04,22,11,30,8.70
2011,04,22,11,31,8.80
2011,04,22,11,32,8.80
2011,04,22,11,33,8.80
2011,04,22,11,34,8.90
2011,04,22,11,35,8.90
2011,04,22,11,36,8.90
2011,04,22,11,37,9.00
2011,04,22,11,38,9.00
2011,04,22,11,39,9.10
2011,04,22,11,40,9.10
2011,04,22,11,41,9.10
2011,04,22,11,42,9.20
2011,04,22,11,43,9.20
2011,04,22,11,44,9.20
2011,04,22,11,45,9.20
2011,04,22,11,46,9.20
2011,04,22,11,47,9.30
2011,04,22,11,48,9.30
2011,04,22,11,49,9.30
2011,04,22,11,50,9.40
2011,04,22,11,51,9.40
2011,04,22,11,52,9.50
2011,04,22,11,53,9.50
2011,04,22,11,54,9.60
2011,04,22,11,55,9.60
2011,04,22,11,56,9.60
2011,04,22,11,57,9.60
2011,04,22,11,58,9.70
2011,04,22,11,59,9.70
2011,04,22,12,00,9.70
2011,04,22,12,01,9.70
2011,04,22,12,02,9.70
2011,04,22,12,03,9.80
2011,04,22,12,04,9.80
2011,04,22,12,05,9.80
2011,04,22,12,06,9.90
2011,04,22,12,07,10.00
2011,04,22,12,08,10.00
2011,04,22,12,09,10.00
2011,04,22,12,10,10.00
2011,04,22,12,11,10.00
2011,04,22,12,12,10.10
2011,04,22,12,13,10.10
2011,04,22,12,14,10.10
2011,04,22,12,15,10.10
2011,04,22,12,16,10.10
2011,04,22,12,17,10.20
2011,04,22,12,18,10.20
2011,04,22,12,19,10.20
2011,04,22,12,20,10.20
2011,04,22,12,21,10.20
2011,04,22,12,22,10.20
2011,04,22,12,23,10.20
2011,04,22,12,24,10.20
2011,04,22,12,25,10.30
2011,04,22,12,26,10.30
2011,04,22,12,27,10.40
2011,04,22,12,28,10.50
2011,04,22,12,29,10.60
2011,04,22,12,30,10.70
2011,04,22,12,31,10.80
2011,04,22,12,32,10.90
2011,04,22,12,33,11.00
2011,04,22,12,34,11.10
2011,04,22,12,35,11.20
2011,04,22,12,36,11.20
2011,04,22,12,37,11.30
2011,04,22,12,38,11.30
2011,04,22,12,39,11.30
2011,04,22,12,40,11.20
2011,04,22,12,41,11.20
2011,04,22,12,42,11.10
2011,04,22,12,43,11.10
2011,04,22,12,44,11.20
2011,04,22,12,45,11.20
2011,04,22,12,46,11.30
2011,04,22,12,47,11.30
2011,04,22,12,48,11.20
2011,04,22,12,49,11.20
2011,04,22,12,50,11.10
2011,04,22,12,51,11.10
2011,04,22,12,52,11.20
2011,04,22,12,53,11.20
2011,04,22,12,54,11.30
2011,04,22,12,55,11.40
2011,04,22,12,56,11.50
2011,04,22,12,57,11.50
2011,04,22,12,58,11.60
2011,04,22,12,59,11.70
2011,04,22,13,00,11.70
2011,04,22,13,01,11.70
2011,04,22,13,02,11.70
2011,04,22,13,03,11.70
2011,04,22,13,04,11.80
2011,04,22,13,05,11.70
2011,04,22,13,06,11.70
2011,04,22,13,07,11.70
2011,04,22,13,08,11.60
2011,04,22,13,09,11.60
2011,04,22,13,10,11.50
2011,04,22,13,11,11.40
2011,04,22,13,12,11.40
2011,04,22,13,13,11.40
2011,04,22,13,14,11.40
2011,04,22,13,15,11.40
2011,04,22,13,16,11.50
2011,04,22,13,17,11.60
2011,04,22,13,18,11.70
2011,04,22,13,19,11.70
2011,04,22,13,20,11.80
2011,04,22,13,21,11.80
2011,04,22,13,22,11.90
2011,04,22,13,23,11.90
2011,04,22,13,24,11.80
2011,04,22,13,25,11.70
2011,04,22,13,26,11.60
2011,04,22,13,27,11.60
2011,04,22,13,28,11.50
2011,04,22,13,29,11.50
2011,04,22,13,30,11.50
2011,04,22,13,31,11.50
2011,04,22,13,32,11.50
2011,04,22,13,33,11.60
2011,04,22,13,34,11.70
2011,04,22,13,35,11.70
2011,04,22,13,36,11.80
2011,04,22,13,37,11.80
2011,04,22,13,38,11.80
2011,04,22,13,39,11.70
2011,04,22,13,40,11.70
2011,04,22,13,41,11.70
2011,04,22,13,42,11.70
2011,04,22,13,43,11.60
2011,04,22,13,44,11.70
2011,04,22,13,45,11.70
2011,04,22,13,46,11.70
2011,04,22,13,47,11.70
2011,04,22,13,48,11.80
2011,04,22,13,49,11.80
2011,04,22,13,50,11.80
2011,04,22,13,51,11.90
2011,04,22,13,52,12.00
2011,04,22,13,53,12.10
2011,04,22,13,54,12.10
2011,04,22,13,55,12.20
2011,04,22,13,56,12.30
2011,04,22,13,57,12.30
2011,04,22,13,58,12.40
2011,04,22,13,59,12.50
2011,04,22,14,00,12.50
2011,04,22,14,01,12.50
2011,04,22,14,02,12.60
2011,04,22,14,03,12.60
2011,04,22,14,04,12.60
2011,04,22,14,05,12.60
2011,04,22,14,06,12.60
2011,04,22,14,07,12.70
2011,04,22,14,08,12.70
2011,04,22,14,09,12.80
2011,04,22,14,10,12.80
2011,04,22,14,11,12.80
2011,04,22,14,12,12.80
2011,04,22,14,13,12.80
2011,04,22,14,14,12.80
2011,04,22,14,15,12.80
2011,04,22,14,16,12.80
2011,04,22,14,17,12.80
2011,04,22,14,18,12.80
2011,04,22,14,19,12.80
2011,04,22,14,20,12.80
2011,04,22,14,21,12.70
2011,04,22,14,22,12.60
2011,04,22,14,23,12.60
2011,04,22,14,24,12.60
2011,04,22,14,25,12.50
2011,04,22,14,26,12.50
2011,04,22,14,27,12.40
2011,04,22,14,28,12.40
2011,04,22,14,29,12.50
2011,04,22,14,30,12.50
2011,04,22,14,31,12.50
2011,04,22,14,32,12.50
2011,04,22,14,33,12.50
2011,04,22,14,34,12.50
2011,04,22,14,35,12.60
2011,04,22,14,36,12.80
2011,04,22,14,37,12.90
2011,04,22,14,38,13.00
2011,04,22,14,39,13.10
2011,04,22,14,40,13.10
2011,04,22,14,41,13.10
2011,04,22,14,42,13.10
2011,04,22,14,43,13.10
2011,04,22,14,44,13.00
2011,04,22,14,45,13.00
2011,04,22,14,46,13.00
2011,04,22,14,47,13.00
2011,04,22,14,48,12.90
2011,04,22,14,49,12.90
2011,04,22,14,50,12.80
2011,04,22,14,51,12.80
2011,04,22,14,52,12.80
2011,04,22,14,53,12.80
2011,04,22,14,54,12.80
2011,04,22,14,55,12.90
2011,04,22,14,56,13.00
2011,04,22,14,57,13.10
2011,04,22,14,58,13.10
2011,04,22,14,59,13.10
2011,04,22,15,00,13.00
2011,04,22,15,01,13.00
2011,04,22,15,02,12.90
2011,04,22,15,03,12.80
2011,04,22,15,04,12.80
2011,04,22,15,05,12.80
2011,04,22,15,06,12.80
2011,04,22,15,07,12.80
2011,04,22,15,08,12.90
2011,04,22,15,09,13.00
2011,04,22,15,10,13.00
2011,04,22,15,11,13.10
2011,04,22,15,12,13.10
2011,04,22,15,13,13.10
2011,04,22,15,14,13.10
2011,04,22,15,15,13.10
2011,04,22,15,16,13.10
2011,04,22,15,17,13.10
2011,04,22,15,18,13.10
2011,04,22,15,19,13.20
2011,04,22,15,20,13.20
2011,04,22,15,21,13.20
2011,04,22,15,22,13.20
2011,04,22,15,23,13.10
2011,04,22,15,24,13.00
2011,04,22,15,25,12.90
2011,04,22,15,26,12.80
2011,04,22,15,27,12.80
2011,04,22,15,28,12.80
2011,04,22,15,29,12.80
2011,04,22,15,30,12.80
2011,04,22,15,31,12.80
2011,04,22,15,32,12.80
2011,04,22,15,33,12.80
2011,04,22,15,34,12.80
2011,04,22,15,35,12.80
2011,04,22,15,36,12.80
2011,04,22,15,37,12.80
2011,04,22,15,38,12.90
2011,04,22,15,39,12.90
2011,04,22,15,40,13.00
2011,04,22,15,41,12.90
2011,04,22,15,42,12.90
2011,04,22,15,43,12.90
2011,04,22,15,44,12.90
2011,04,22,15,45,12.90
2011,04,22,15,46,12.90
2011,04,22,15,47,12.90
2011,04,22,15,48,12.90
2011,04,22,15,49,12.90
2011,04,22,15,50,12.90
2011,04,22,15,51,12.90
2011,04,22,15,52,12.80
2011,04,22,15,53,12.70
2011,04,22,15,54,12.70
2011,04,22,15,55,12.70
2011,04,22,15,56,12.70
2011,04,22,15,57,12.70
2011,04,22,15,58,12.70
2011,04,22,15,59,12.70
2011,04,22,16,00,12.70
2011,04,22,16,01,12.80
2011,04,22,16,02,12.80
2011,04,22,16,03,12.80
2011,04,22,16,04,12.90
2011,04,22,16,05,12.90
2011,04,22,16,06,12.90
2011,04,22,16,07,12.90
2011,04,22,16,08,12.80
2011,04,22,16,09,12.80
2011,04,22,16,10,12.80
2011,04,22,16,11,12.80
2011,04,22,16,12,12.80
2011,04,22,16,13,12.90
2011,04,22,16,14,12.90
2011,04,22,16,15,12.80
2011,04,22,16,16,12.90
2011,04,22,16,17,12.90
2011,04,22,16,18,12.90
2011,04,22,16,19,13.00
2011,04,22,16,20,13.10
2011,04,22,16,21,13.10
2011,04,22,16,22,13.00
2011,04,22,16,23,12.90
2011,04,22,16,24,12.80
2011,04,22,16,25,12.80
2011,04,22,16,26,12.80
2011,04,22,16,27,12.80
2011,04,22,16,28,12.90
2011,04,22,16,29,12.90
2011,04,22,16,30,12.90
2011,04,22,16,31,12.90
2011,04,22,16,32,13.00
2011,04,22,16,33,13.00
2011,04,22,16,34,13.00
2011,04,22,16,35,13.00
2011,04,22,16,36,12.90
2011,04,22,16,37,12.80
2011,04,22,16,38,12.70
2011,04,22,16,39,12.70
2011,04,22,16,40,12.80
2011,04,22,16,41,12.70
2011,04,22,16,42,12.70
2011,04,22,16,43,12.80
2011,04,22,16,44,12.80
2011,04,22,16,45,12.80
2011,04,22,16,46,12.80
2011,04,22,16,47,12.80
2011,04,22,16,48,12.80
2011,04,22,16,49,12.70
2011,04,22,16,50,12.70
2011,04,22,16,51,12.70
2011,04,22,16,52,12.70
2011,04,22,16,53,12.70
2011,04,22,16,54,12.80
2011,04,22,16,55,12.80
2011,04,22,16,56,12.70
2011,04,22,16,57,12.70
2011,04,22,16,58,12.70
2011,04,22,16,59,12.70
2011,04,22,17,00,12.70
2011,04,22,17,01,12.70
2011,04,22,17,02,12.70
2011,04,22,17,03,12.70
2011,04,22,17,04,12.70
2011,04,22,17,05,12.70
2011,04,22,17,06,12.60
2011,04,22,17,07,12.60
2011,04,22,17,08,12.60
2011,04,22,17,09,12.60
2011,04,22,17,10,12.60
2011,04,22,17,11,12.60
2011,04,22,17,12,12.70
2011,04,22,17,13,12.70
2011,04,22,17,14,12.70
2011,04,22,17,15,12.70
2011,04,22,17,16,12.70
2011,04,22,17,17,12.70
2011,04,22,17,18,12.70
2011,04,22,17,19,12.70
2011,04,22,17,20,12.70
2011,04,22,17,21,12.70
2011,04,22,17,22,12.80
2011,04,22,17,23,12.70
2011,04,22,17,24,12.70
2011,04,22,17,25,12.70
2011,04,22,17,26,12.70
2011,04,22,17,27,12.70
2011,04,22,17,28,12.80
2011,04,22,17,29,12.80
2011,04,22,17,30,12.80
2011,04,22,17,31,12.80
2011,04,22,17,32,12.80
2011,04,22,17,33,12.80
2011,04,22,17,34,12.80
2011,04,22,17,35,12.80
2011,04,22,17,36,12.80
2011,04,22,17,37,12.80
2011,04,22,17,38,12.80
2011,04,22,17,39,12.70
2011,04,22,17,40,12.70
2011,04,22,17,41,12.70
2011,04,22,17,42,12.70
2011,04,22,17,43,12.70
2011,04,22,17,44,12.60
2011,04,22,17,45,12.70
2011,04,22,17,46,12.70
2011,04,22,17,47,12.70
2011,04,22,17,48,12.70
2011,04,22,17,49,12.70
2011,04,22,17,50,12.70
2011,04,22,17,51,12.70